Tracking 25612 objects as of 20-May-2022
HD Live streaming from Space Station
objects crossing your sky now

COSMOS 2251 DEB

Track COSMOS 2251 DEB now!
10-day predictions


NORAD ID: 34819
Int'l Code: 1993-036ABJ
Perigee: 735.4 km
Apogee: 770.2 km
Inclination: 74.0 °
Period: 99.7 minutes
Semi major axis: 7123 km
RCS: 0.004 m2 (small)
Launch date: June 16, 1993
Source: Commonwealth of Independent States (former USSR) (CIS)
Launch site: PLESETSK MISSILE AND SPACE COMPLEX (PKMTR)

Note: This is SATELLITE DEBRIS
aabbcc
Your satellite tracking list
Your tracking list is empty




NASA's NSSDC Master Catalog

Two Line Element Set (TLE):
1 34819U 93036ABJ 22139.29032375  .00004274  00000-0  12554-2 0  9990
2 34819  74.0267  79.6394 0024428 129.8512  26.8172 14.43904412693128
Source of the keplerian elements: AFSPC